Location: City of Moscow
(46.7306°N, 116.9989°W)
Time: 03:21:35
(UTC+00:00)

USA 234 - Pass Details

Date: 12 March 2026
Orbit: 1102 x 1106 km, 123.0° (Epoch: 4 January)

Event Time Altitude Azimuth Distance (km) Brightness Sun altitude
Exits shadow 04:12:53 43° 74° (ENE) 1,501 3.6 -25.0°
Maximum altitude 04:14:42 57° 25° (NNE) 1,290 3.5 -25.3°
Drops below altitude 10° 04:21:05 10° 309° (NW) 2,971 6.5 -26.3°
Sets 04:23:36 0° 306° (NW) 3,931 7.4 -26.7°
